sat.trackr.live / text

‹ back to catalog

ONEWEB-0212

NORAD 48791 · 2021-045AA

PAYLOAD ACTIVE UNKNOWN

§ Identity

Operator
Country
UK
Launch date
2021-05-28
Launch site
VOSTO
Launch vehicle
Mass (kg)
RCS (m²)

Purposes: comms

External: N2YO · Heavens-Above · Gunter

§ Orbital elements

Epoch: 2026-09-09T22:30:23.728896Z

Period
109.46 min
Inclination
87.8978°
Eccentricity
0.0002130
Mean motion
13.15549931 rev/d
Perigee alt
1,200.2 km
Apogee alt
1,203.4 km
Semi-major
7,579.9 km
B*
3.0908e-5
RAAN
242.2942°
Arg perigee
86.4990°
Mean anomaly
273.6384°
Rev number
25,557

§ Raw data

ONEWEB-02121 48791U 21045AA  26252.93777464  .00000024  00000+0  30908-4 0  99942 48791  87.8978 242.2942 0002130  86.4990 273.6384 13.15549931255573

JSON: /api/v1/satellites/48791 · /tle

For live sub-satellite position, see the globe view (requires WebGL).

§ Visibility from observer

Set your observer location to see the next 7 days of passes ≥ 10°. The values pass through the URL so the page stays shareable.

No JS? Fill the form by hand. The geolocation button needs JavaScript.